📊 Raw Sensor Data
Showing records 41976 to 42000 of 84,992 total
| ID | Distance (ft) | Battery V | Battery A | Int Temp (°F) | Int Humid (%) | Ext Temp (°F) | Solar V | RSSI | SNR | Time Stamp |
|---|---|---|---|---|---|---|---|---|---|---|
| 43029 | 15.7 | 4.02 | 0 | 97 | 49 | 88 | 5.10 | -71 | 7 | 06/09/2025 05:15 PM |
| 43028 | 15.7 | 4.02 | 0 | 97 | 48 | 90 | 5.10 | -72 | 7 | 06/09/2025 05:00 PM |
| 43027 | 15.7 | 4.02 | 0 | 98 | 48 | 89 | 5.10 | -71 | 7 | 06/09/2025 04:45 PM |
| 43026 | 15.7 | 4.02 | 0 | 99 | 47 | 90 | 5.10 | -73 | 7 | 06/09/2025 04:30 PM |
| 43025 | 15.7 | 4.02 | 0 | 100 | 46 | 91 | 5.10 | -74 | 8 | 06/09/2025 04:15 PM |
| 43024 | 15.7 | 4.02 | 0 | 100 | 44 | 91 | 5.10 | -73 | 7 | 06/09/2025 03:45 PM |
| 43023 | 15.7 | 4.02 | 0 | 100 | 43 | 94 | 5.10 | -72 | 7 | 06/09/2025 03:30 PM |
| 43022 | 15.7 | 4.02 | 0 | 99 | 43 | 93 | 5.10 | -72 | 8 | 06/09/2025 03:15 PM |
| 43021 | 15.7 | 4.02 | 0 | 97 | 43 | 92 | 5.10 | -73 | 8 | 06/09/2025 03:00 PM |
| 43020 | 15.7 | 4.08 | 0 | 96 | 43 | 89 | 5.10 | -73 | 8 | 06/09/2025 02:45 PM |
| 43019 | 15.7 | 4.02 | 0 | 95 | 42 | 89 | 5.10 | -72 | 7 | 06/09/2025 02:30 PM |
| 43018 | 15.7 | 4.02 | 0 | 94 | 42 | 88 | 5.10 | -73 | 8 | 06/09/2025 02:15 PM |
| 43017 | 15.7 | 4.14 | 0 | 92 | 42 | 86 | 5.10 | -72 | 7 | 06/09/2025 01:45 PM |
| 43016 | 15.7 | 4.02 | 0 | 92 | 42 | 85 | 5.10 | -74 | 8 | 06/09/2025 01:30 PM |
| 43015 | 15.7 | 4.02 | 0 | 91 | 42 | 86 | 5.10 | -74 | 8 | 06/09/2025 01:15 PM |
| 43014 | 15.7 | 4.12 | 0 | 89 | 43 | 85 | 5.10 | -72 | 8 | 06/09/2025 01:00 PM |
| 43013 | 15.7 | 4.02 | 0 | 88 | 43 | 84 | 5.10 | -71 | 7 | 06/09/2025 12:45 PM |
| 43012 | 15.7 | 4.02 | 0 | 86 | 43 | 83 | 5.10 | -72 | 7 | 06/09/2025 12:30 PM |
| 43011 | 15.7 | 4.02 | 0 | 85 | 43 | 83 | 5.10 | -72 | 6 | 06/09/2025 12:15 PM |
| 43010 | 15.7 | 4.02 | 0 | 84 | 44 | 84 | 5.10 | -73 | 8 | 06/09/2025 12:00 PM |
| 43009 | 15.8 | 4.02 | 0 | 83 | 43 | 82 | 5.10 | -69 | 8 | 06/09/2025 11:45 AM |
| 43008 | 15.8 | 4.02 | 0 | 82 | 43 | 84 | 5.10 | -71 | 7 | 06/09/2025 11:30 AM |
| 43007 | 15.8 | 4.02 | 0 | 81 | 43 | 82 | 5.10 | -69 | 7 | 06/09/2025 11:15 AM |
| 43006 | 15.8 | 4.14 | 0 | 81 | 43 | 83 | 5.10 | -70 | 7 | 06/09/2025 11:00 AM |
| 43005 | 15.8 | 4.02 | 0 | 80 | 42 | 79 | 5.10 | -70 | 8 | 06/09/2025 10:45 AM |